Bundaberg Aero, Australia

3:26 AM AEST on February 20, 2017 (GMT +1000)
Bundaberg Aero

Weather History for 94387 - September, 2013

Change the Weather History Date:

Monday, September 16, 2013

  Actual Average Record
Temperature  
Mean Temperature 74 °F -  
Max Temperature 79 °F - - ()
Min Temperature 69 °F - - ()
Cooling Degree Days 9    
Growing Degree Days 24 (Base 50)    
Moisture  
Dew Point 67 °F    
Average Humidity 86    
Maximum Humidity 94    
Minimum Humidity 53    
Precipitation  
Precipitation 0.00 in - - ()
Sea Level Pressure  
Sea Level Pressure 29.94 in    
Wind  
Wind Speed 8 mph ()    
Max Wind Speed 15 mph    
Max Gust Speed -    
Visibility 6.2 miles    
Events      
T = Trace of Precipitation, MM = Missing Value Source: Averaged Metar Reports

Daily Weather History Graph

Daily Weather History Graph

Search for Another Location

Airport or City:

Trip Planner

Search our weather history database for the weather conditions in past years. The results will help you decide how hot, cold, wet, or windy it might be!

Date:

Astronomy

Sep. 16, 2013 Rise Set
Actual Time 5:47 AM AEST 5:44 PM AEST
Civil Twilight 5:24 AM AEST 6:07 PM AEST
Nautical Twilight 4:57 AM AEST 6:33 PM AEST
Astronomical Twilight 4:31 AM AEST 7:00 PM AEST
Moon 2:29 PM AEST (9/16) 2:54 AM AEST (9/16)
Length of Visible Light 12h 42m
Length of Day
11h 57m
Waxing Gibbous, 85% of the Moon is Illuminated
Sep 16
Waxing Gibbous
Sep 19
Full
Sep 27
Last Quarter
Oct 5
New
Oct 12
First Quarter

Hourly Weather History & Observations

Time (AEST) Temp. Dew Point Humidity Pressure Visibility Wind Dir Wind Speed Gust Speed Precip Events Conditions
12:00 AM 70 °F 68 °F 91% 29.98 in - East 8.1 mph - -  
2:51 AM 69.8 °F 68.0 °F 94% 29.95 in 6.2 mi ESE 5.8 mph - N/A   Overcast
3:00 AM 70 °F 67 °F 89% 29.96 in - East 8.1 mph - -   Overcast
3:00 AM 69.8 °F 68.0 °F 94% 29.95 in 6.2 mi East 8.1 mph - N/A   Overcast
3:15 AM 69.8 °F 68.0 °F 94% 29.95 in 6.2 mi ESE 9.2 mph - N/A   Overcast
3:30 AM 69.8 °F 68.0 °F 94% 29.95 in 6.2 mi ESE 8.1 mph - N/A   Overcast
4:00 AM 69.8 °F 68.0 °F 94% 29.95 in 6.2 mi ESE 8.1 mph - N/A   Overcast
4:30 AM 69.8 °F 68.0 °F 94% 29.95 in 6.2 mi ESE 9.2 mph - N/A   Mostly Cloudy
5:00 AM 69.8 °F 68.0 °F 94% 29.95 in 6.2 mi East 10.4 mph - N/A   Overcast
5:30 AM 69.8 °F 68.0 °F 94% 29.95 in 6.2 mi East 9.2 mph - N/A   Mostly Cloudy
6:00 AM 70 °F 67 °F 88% 29.97 in - East 8.1 mph - -  
6:30 AM 69.8 °F 68.0 °F 94% 29.95 in 6.2 mi East 8.1 mph - N/A   Mostly Cloudy
7:00 AM 71.6 °F 68.0 °F 88% 29.98 in 6.2 mi East 5.8 mph - N/A   Overcast
7:30 AM 71.6 °F 68.0 °F 88% 29.98 in 6.2 mi ENE 6.9 mph - N/A   Overcast
8:00 AM 73.4 °F 66.2 °F 78% 30.01 in 6.2 mi East 5.8 mph - N/A   Overcast
8:30 AM 73.4 °F 66.2 °F 78% 30.01 in 6.2 mi ENE 9.2 mph - N/A   Overcast
9:00 AM 75 °F 66 °F 67% 29.99 in - ENE 12.7 mph - -   Overcast
9:00 AM 75.2 °F 66.2 °F 73% 29.98 in 6.2 mi NE 12.7 mph - N/A   Mostly Cloudy
9:08 AM 75.2 °F 66.2 °F 73% 29.98 in 6.2 mi NE 11.5 mph - N/A   Mostly Cloudy
12:00 PM 79 °F 65 °F 53% 29.94 in - NNE 15.0 mph - -   Overcast
6:00 PM 72 °F 66 °F 77% 29.88 in - NNE 11.5 mph - -   Overcast
6:13 PM 71.6 °F 66.2 °F 83% 29.89 in 6.2 mi NNE 11.5 mph - N/A   Mostly Cloudy
6:30 PM 71.6 °F 66.2 °F 83% 29.89 in 6.2 mi North 10.4 mph - N/A   Mostly Cloudy
9:00 PM 71 °F 67 °F 82% 29.88 in - North 13.8 mph - -  
9:12 PM 69.8 °F 66.2 °F 88% 29.86 in 6.2 mi North 12.7 mph - N/A   Mostly Cloudy
9:30 PM 69.8 °F 66.2 °F 88% 29.86 in 6.2 mi North 12.7 mph - N/A   Scattered Clouds
9:32 PM 69.8 °F 66.2 °F 88% 29.86 in 6.2 mi North 12.7 mph - N/A   Scattered Clouds
10:00 PM 69.8 °F 66.2 °F 88% 29.86 in 6.2 mi North 13.8 mph - N/A   Scattered Clouds
10:14 PM 69.8 °F 66.2 °F 88% 29.86 in 6.2 mi North 13.8 mph - N/A   Scattered Clouds
11:00 PM 71.6 °F 66.2 °F 83% 29.92 in 6.2 mi WSW 6.9 mph - N/A   Mostly Cloudy
11:30 PM 69.8 °F 66.2 °F 88% 29.92 in 6.2 mi NW 4.6 mph - N/A   Overcast
11:32 PM 69.8 °F 66.2 °F 88% 29.92 in 6.2 mi NW 4.6 mph - N/A   Overcast